owner,sensor,date,latitude,longitude,vertical_datum,sea_water_temperature,qcFlag
BP,ioos:station:wmo:42907:1,2023-01-01T00:04:00Z,27.1521,-90.3424,16.6,22.4,11111222
BP,ioos:station:wmo:42907:1,2023-01-01T00:14:00Z,27.1521,-90.3424,16.6,22.4,11111222
BP,ioos:station:wmo:42907:1,2023-01-01T00:24:00Z,27.1521,-90.3424,16.6,22.4,11111222
BP,ioos:station:wmo:42907:1,2023-01-01T00:34:00Z,27.1521,-90.3424,16.6,22.4,11111222
BP,ioos:station:wmo:42907:1,2023-01-01T00:44:00Z,27.1521,-90.3424,16.6,22.4,11111222
BP,ioos:station:wmo:42907:1,2023-01-01T00:54:00Z,27.1521,-90.3424,16.6,22.4,11111222
BP,ioos:station:wmo:42907:1,2023-01-01T01:04:00Z,27.1521,-90.3424,16.7,22.4,11111222
BP,ioos:station:wmo:42907:1,2023-01-01T01:14:00Z,27.1521,-90.3424,16.7,22.4,11111222
BP,ioos:station:wmo:42907:1,2023-01-01T01:24:00Z,27.1521,-90.3424,16.6,22.4,11111222
BP,ioos:station:wmo:42907:1,2023-01-01T01:34:00Z,27.1521,-90.3424,16.7,22.4,11111222
BP,ioos:station:wmo:42907:1,2023-01-01T01:44:00Z,27.1521,-90.3424,16.7,22.4,11111222
BP,ioos:station:wmo:42907:1,2023-01-01T01:54:00Z,27.1521,-90.3424,16.6,22.4,11111222
BP,ioos:station:wmo:42907:1,2023-01-01T02:04:00Z,27.1521,-90.3424,16.6,22.4,11111222
BP,ioos:station:wmo:42907:1,2023-01-01T02:14:00Z,27.1521,-90.3424,16.6,22.4,11111222
BP,ioos:station:wmo:42907:1,2023-01-01T02:24:00Z,27.1521,-90.3424,16.7,22.4,11111222
BP,ioos:station:wmo:42907:1,2023-01-01T02:34:00Z,27.1521,-90.3424,16.6,22.4,11111222
BP,ioos:station:wmo:42907:1,2023-01-01T02:44:00Z,27.1521,-90.3424,16.5,22.4,11111222
BP,ioos:station:wmo:42907:1,2023-01-01T02:54:00Z,27.1521,-90.3424,16.6,22.3,11111222
BP,ioos:station:wmo:42907:1,2023-01-01T03:04:00Z,27.1521,-90.3424,16.6,22.3,11111222
BP,ioos:station:wmo:42907:1,2023-01-01T03:14:00Z,27.1521,-90.3424,16.5,22.3,11111222
BP,ioos:station:wmo:42907:1,2023-01-01T03:24:00Z,27.1521,-90.3424,16.5,22.3,11111222
BP,ioos:station:wmo:42907:1,2023-01-01T03:34:00Z,27.1521,-90.3424,16.5,22.3,11111222
BP,ioos:station:wmo:42907:1,2023-01-01T03:44:00Z,27.1521,-90.3424,16.6,22.3,11111222
BP,ioos:station:wmo:42907:1,2023-01-01T03:54:00Z,27.1521,-90.3424,16.7,22.3,11111222
BP,ioos:station:wmo:42907:1,2023-01-01T04:04:00Z,27.1521,-90.3424,16.7,22.3,11111222
BP,ioos:station:wmo:42907:1,2023-01-01T04:14:00Z,27.1521,-90.3424,16.7,22.3,11111222
BP,ioos:station:wmo:42907:1,2023-01-01T04:24:00Z,27.1521,-90.3424,16.7,22.3,11111222
BP,ioos:station:wmo:42907:1,2023-01-01T04:34:00Z,27.1521,-90.3424,16.7,22.4,11111222
BP,ioos:station:wmo:42907:1,2023-01-01T04:44:00Z,27.1521,-90.3424,16.7,22.4,11111222
BP,ioos:station:wmo:42907:1,2023-01-01T04:54:00Z,27.1521,-90.3424,16.6,22.3,11111222
BP,ioos:station:wmo:42907:1,2023-01-01T05:04:00Z,27.1521,-90.3424,16.6,22.3,11111222
BP,ioos:station:wmo:42907:1,2023-01-01T05:14:00Z,27.1521,-90.3424,16.5,22.4,11111222
BP,ioos:station:wmo:42907:1,2023-01-01T05:24:00Z,27.1521,-90.3424,16.5,22.4,11111222
BP,ioos:station:wmo:42907:1,2023-01-01T05:34:00Z,27.1521,-90.3424,16.5,22.4,11111222
BP,ioos:station:wmo:42907:1,2023-01-01T05:44:00Z,27.1521,-90.3424,16.4,22.4,11111222
BP,ioos:station:wmo:42907:1,2023-01-01T05:54:00Z,27.1521,-90.3424,16.3,22.4,11111222
BP,ioos:station:wmo:42907:1,2023-01-01T06:04:00Z,27.1521,-90.3424,16.3,22.4,11111222
BP,ioos:station:wmo:42907:1,2023-01-01T06:14:00Z,27.1521,-90.3424,16.5,22.4,11111222
BP,ioos:station:wmo:42907:1,2023-01-01T06:24:00Z,27.1521,-90.3424,16.6,22.4,11111222
BP,ioos:station:wmo:42907:1,2023-01-01T06:34:00Z,27.1521,-90.3424,16.5,22.4,11111222
BP,ioos:station:wmo:42907:1,2023-01-01T06:45:00Z,27.1521,-90.3424,16.5,22.4,11111222
BP,ioos:station:wmo:42907:1,2023-01-01T06:55:00Z,27.1521,-90.3424,16.5,22.4,11111222
BP,ioos:station:wmo:42907:1,2023-01-01T07:05:00Z,27.1521,-90.3424,16.6,22.4,11111222
BP,ioos:station:wmo:42907:1,2023-01-01T07:15:00Z,27.1521,-90.3424,16.6,22.4,11111222
BP,ioos:station:wmo:42907:1,2023-01-01T07:25:00Z,27.1521,-90.3424,16.8,22.4,11111222
BP,ioos:station:wmo:42907:1,2023-01-01T07:35:00Z,27.1521,-90.3424,16.8,22.4,11111222
BP,ioos:station:wmo:42907:1,2023-01-01T07:45:00Z,27.1521,-90.3424,16.8,22.4,11111222
BP,ioos:station:wmo:42907:1,2023-01-01T07:55:00Z,27.1521,-90.3424,16.6,22.4,11111222
BP,ioos:station:wmo:42907:1,2023-01-01T08:05:00Z,27.1521,-90.3424,16.7,22.4,11111222
BP,ioos:station:wmo:42907:1,2023-01-01T08:15:00Z,27.1521,-90.3424,16.7,22.4,11111222
BP,ioos:station:wmo:42907:1,2023-01-01T08:25:00Z,27.1521,-90.3424,16.7,22.4,11111222
BP,ioos:station:wmo:42907:1,2023-01-01T08:35:00Z,27.1521,-90.3424,16.7,22.4,11111222
BP,ioos:station:wmo:42907:1,2023-01-01T08:45:00Z,27.1521,-90.3424,16.7,22.4,11111222
BP,ioos:station:wmo:42907:1,2023-01-01T08:55:00Z,27.1521,-90.3424,16.6,22.4,11111222
BP,ioos:station:wmo:42907:1,2023-01-01T09:05:00Z,27.1521,-90.3424,16.6,22.4,11111222
BP,ioos:station:wmo:42907:1,2023-01-01T09:15:00Z,27.1521,-90.3424,16.7,22.4,11111222
BP,ioos:station:wmo:42907:1,2023-01-01T09:25:00Z,27.1521,-90.3424,16.8,22.4,11111222
BP,ioos:station:wmo:42907:1,2023-01-01T09:35:00Z,27.1521,-90.3424,16.7,22.4,11111222
BP,ioos:station:wmo:42907:1,2023-01-01T09:45:00Z,27.1521,-90.3424,16.7,22.4,11111222
BP,ioos:station:wmo:42907:1,2023-01-01T09:55:00Z,27.1521,-90.3424,16.7,22.4,11111222
BP,ioos:station:wmo:42907:1,2023-01-01T10:05:00Z,27.1521,-90.3424,16.6,22.4,11111222
BP,ioos:station:wmo:42907:1,2023-01-01T10:15:00Z,27.1521,-90.3424,16.6,22.4,11111222
BP,ioos:station:wmo:42907:1,2023-01-01T10:25:00Z,27.1521,-90.3424,16.7,22.4,11111222
BP,ioos:station:wmo:42907:1,2023-01-01T10:35:00Z,27.1521,-90.3424,16.7,22.4,11111222
BP,ioos:station:wmo:42907:1,2023-01-01T10:45:00Z,27.1521,-90.3424,16.6,22.4,11111222
BP,ioos:station:wmo:42907:1,2023-01-01T10:55:00Z,27.1521,-90.3424,16.6,22.4,11111222
BP,ioos:station:wmo:42907:1,2023-01-01T11:05:00Z,27.1521,-90.3424,16.6,22.4,11111222
BP,ioos:station:wmo:42907:1,2023-01-01T11:15:00Z,27.1521,-90.3424,16.6,22.4,11111222
BP,ioos:station:wmo:42907:1,2023-01-01T11:25:00Z,27.1521,-90.3424,16.6,22.4,11111222
BP,ioos:station:wmo:42907:1,2023-01-01T11:35:00Z,27.1521,-90.3424,16.6,22.4,11111222
BP,ioos:station:wmo:42907:1,2023-01-01T11:45:00Z,27.1521,-90.3424,16.6,22.4,11111222
BP,ioos:station:wmo:42907:1,2023-01-01T11:55:00Z,27.1521,-90.3424,16.6,22.4,11111222
BP,ioos:station:wmo:42907:1,2023-01-01T12:05:00Z,27.1521,-90.3424,16.5,22.4,11111222
BP,ioos:station:wmo:42907:1,2023-01-01T12:15:00Z,27.1521,-90.3424,16.5,22.4,11111222
BP,ioos:station:wmo:42907:1,2023-01-01T12:25:00Z,27.1521,-90.3424,16.4,22.4,11111222
BP,ioos:station:wmo:42907:1,2023-01-01T12:35:00Z,27.1521,-90.3424,16.5,22.4,11111222
BP,ioos:station:wmo:42907:1,2023-01-01T12:45:00Z,27.1521,-90.3424,16.6,22.4,11111222
BP,ioos:station:wmo:42907:1,2023-01-01T12:55:00Z,27.1521,-90.3424,16.7,22.4,11111222
BP,ioos:station:wmo:42907:1,2023-01-01T13:05:00Z,27.1521,-90.3424,16.7,22.4,11111222
BP,ioos:station:wmo:42907:1,2023-01-01T13:15:00Z,27.1521,-90.3424,16.8,22.3,11111222
BP,ioos:station:wmo:42907:1,2023-01-01T13:25:00Z,27.1521,-90.3424,16.9,22.3,11111222
BP,ioos:station:wmo:42907:1,2023-01-01T13:35:00Z,27.1521,-90.3424,16.8,22.3,11111222
BP,ioos:station:wmo:42907:1,2023-01-01T13:45:00Z,27.1521,-90.3424,16.9,22.3,11111222
BP,ioos:station:wmo:42907:1,2023-01-01T13:55:00Z,27.1521,-90.3424,16.7,22.3,11111222
BP,ioos:station:wmo:42907:1,2023-01-01T14:06:00Z,27.1521,-90.3424,16.7,22.3,11111222
BP,ioos:station:wmo:42907:1,2023-01-01T14:16:00Z,27.1521,-90.3424,16.7,22.3,11111222
BP,ioos:station:wmo:42907:1,2023-01-01T14:26:00Z,27.1521,-90.3424,16.6,22.3,11111222
BP,ioos:station:wmo:42907:1,2023-01-01T14:36:00Z,27.1521,-90.3424,16.6,22.4,11111222
BP,ioos:station:wmo:42907:1,2023-01-01T14:46:00Z,27.1521,-90.3424,16.6,22.4,11111222
BP,ioos:station:wmo:42907:1,2023-01-01T14:56:00Z,27.1521,-90.3424,16.7,22.4,11111222
BP,ioos:station:wmo:42907:1,2023-01-01T15:06:00Z,27.1463,-90.3190,16.7,22.3,11111222
BP,ioos:station:wmo:42907:1,2023-01-01T15:16:00Z,27.1463,-90.3190,16.7,22.3,11111222
BP,ioos:station:wmo:42907:1,2023-01-01T15:26:00Z,27.1463,-90.3190,16.3,22.3,11111222
BP,ioos:station:wmo:42907:1,2023-01-01T15:36:00Z,27.1463,-90.3190,16.5,22.3,11111222
BP,ioos:station:wmo:42907:1,2023-01-01T15:46:00Z,27.1463,-90.3189,16.5,22.3,11111222
BP,ioos:station:wmo:42907:1,2023-01-01T15:56:00Z,27.1463,-90.3189,16.6,22.3,11111222
BP,ioos:station:wmo:42907:1,2023-01-01T16:06:00Z,27.1463,-90.3190,16.5,22.3,11111222
BP,ioos:station:wmo:42907:1,2023-01-01T16:16:00Z,27.1463,-90.3190,16.7,22.3,11111222
BP,ioos:station:wmo:42907:1,2023-01-01T16:26:00Z,27.1463,-90.3190,16.6,22.4,11111222
BP,ioos:station:wmo:42907:1,2023-01-01T16:36:00Z,27.1463,-90.3190,16.6,22.4,11111222
BP,ioos:station:wmo:42907:1,2023-01-01T16:46:00Z,27.1463,-90.3190,16.5,22.4,11111222
BP,ioos:station:wmo:42907:1,2023-01-01T16:56:00Z,27.1463,-90.3190,16.3,22.3,11111222
BP,ioos:station:wmo:42907:1,2023-01-01T17:06:00Z,27.1463,-90.3190,16.6,22.3,11111222
BP,ioos:station:wmo:42907:1,2023-01-01T17:16:00Z,27.1463,-90.3190,16.7,22.3,11111222
BP,ioos:station:wmo:42907:1,2023-01-01T17:26:00Z,27.1463,-90.3190,16.8,22.3,11111222
BP,ioos:station:wmo:42907:1,2023-01-01T17:36:00Z,27.1463,-90.3190,16.9,22.3,11111222
BP,ioos:station:wmo:42907:1,2023-01-01T17:46:00Z,27.1463,-90.3190,16.7,22.3,11111222
BP,ioos:station:wmo:42907:1,2023-01-01T17:56:00Z,27.1463,-90.3190,16.6,22.3,11111222
BP,ioos:station:wmo:42907:1,2023-01-01T18:06:00Z,27.1463,-90.3190,16.7,22.3,11111222
BP,ioos:station:wmo:42907:1,2023-01-01T18:16:00Z,27.1463,-90.3190,16.8,22.3,11111222
BP,ioos:station:wmo:42907:1,2023-01-01T18:26:00Z,27.1463,-90.3190,16.8,22.3,11111222
BP,ioos:station:wmo:42907:1,2023-01-01T18:36:00Z,27.1463,-90.3190,16.6,22.4,11111222
BP,ioos:station:wmo:42907:1,2023-01-01T18:46:00Z,27.1463,-90.3190,16.6,22.4,11111222
BP,ioos:station:wmo:42907:1,2023-01-01T18:56:00Z,27.1463,-90.3190,16.7,22.3,11111222
BP,ioos:station:wmo:42907:1,2023-01-01T19:06:00Z,27.1463,-90.3190,16.7,22.3,11111222
BP,ioos:station:wmo:42907:1,2023-01-01T19:16:00Z,27.1463,-90.3190,16.7,22.3,11111222
BP,ioos:station:wmo:42907:1,2023-01-01T19:26:00Z,27.1463,-90.3190,16.6,22.3,11111222
BP,ioos:station:wmo:42907:1,2023-01-01T19:36:00Z,27.1463,-90.3190,16.6,22.4,11111222
BP,ioos:station:wmo:42907:1,2023-01-01T19:46:00Z,27.1463,-90.3190,16.6,22.4,11111222
BP,ioos:station:wmo:42907:1,2023-01-01T19:56:00Z,27.1463,-90.3190,16.6,22.4,11111222
BP,ioos:station:wmo:42907:1,2023-01-01T20:06:00Z,27.1463,-90.3189,16.2,22.4,11111222
BP,ioos:station:wmo:42907:1,2023-01-01T20:16:00Z,27.1463,-90.3189,16.3,22.4,11111222
BP,ioos:station:wmo:42907:1,2023-01-01T20:26:00Z,27.1464,-90.3189,16.3,22.4,11111222
BP,ioos:station:wmo:42907:1,2023-01-01T20:36:00Z,27.1464,-90.3189,16.2,22.4,11111222
BP,ioos:station:wmo:42907:1,2023-01-01T20:46:00Z,27.1464,-90.3189,16.3,22.5,11111222
BP,ioos:station:wmo:42907:1,2023-01-01T20:56:00Z,27.1464,-90.3189,16.3,22.6,11111222
BP,ioos:station:wmo:42907:1,2023-01-01T21:06:00Z,27.1464,-90.3189,16.2,22.6,11111222
BP,ioos:station:wmo:42907:1,2023-01-01T21:17:00Z,27.1464,-90.3189,16.3,22.7,11111222
BP,ioos:station:wmo:42907:1,2023-01-01T21:27:00Z,27.1464,-90.3189,16.4,22.6,11111222
BP,ioos:station:wmo:42907:1,2023-01-01T21:37:00Z,27.1464,-90.3189,16.3,22.6,11111222
BP,ioos:station:wmo:42907:1,2023-01-01T21:47:00Z,27.1464,-90.3189,16.3,22.6,11111222
BP,ioos:station:wmo:42907:1,2023-01-01T21:57:00Z,27.1464,-90.3189,16.5,22.6,11111222
BP,ioos:station:wmo:42907:1,2023-01-01T22:07:00Z,27.1464,-90.3189,16.2,22.6,11111222
BP,ioos:station:wmo:42907:1,2023-01-01T22:17:00Z,27.1464,-90.3189,16.3,22.5,11111222
BP,ioos:station:wmo:42907:1,2023-01-01T22:27:00Z,27.1464,-90.3189,16.5,22.5,11111222
BP,ioos:station:wmo:42907:1,2023-01-01T22:37:00Z,27.1464,-90.3189,16.4,22.5,11111222
BP,ioos:station:wmo:42907:1,2023-01-01T22:47:00Z,27.1464,-90.3189,16.7,22.7,11111222
BP,ioos:station:wmo:42907:1,2023-01-01T22:57:00Z,27.1464,-90.3189,16.8,22.7,11111222
BP,ioos:station:wmo:42907:1,2023-01-01T23:07:00Z,27.1464,-90.3189,16.8,22.6,11111222
BP,ioos:station:wmo:42907:1,2023-01-01T23:17:00Z,27.1464,-90.3189,16.8,22.6,11111222
BP,ioos:station:wmo:42907:1,2023-01-01T23:27:00Z,27.1464,-90.3189,16.6,22.6,11111222
BP,ioos:station:wmo:42907:1,2023-01-01T23:37:00Z,27.1464,-90.3189,16.6,22.6,11111222
BP,ioos:station:wmo:42907:1,2023-01-01T23:47:00Z,27.1464,-90.3189,16.6,22.6,11111222
BP,ioos:station:wmo:42907:1,2023-01-01T23:57:00Z,27.1464,-90.3189,16.6,22.5,11111222
BP,ioos:station:wmo:42907:1,2023-01-02T00:07:00Z,27.1464,-90.3189,16.6,22.5,11111222
BP,ioos:station:wmo:42907:1,2023-01-02T00:17:00Z,27.1464,-90.3189,16.6,22.5,11111222
BP,ioos:station:wmo:42907:1,2023-01-02T00:27:00Z,27.1464,-90.3189,16.7,22.5,11111222
BP,ioos:station:wmo:42907:1,2023-01-02T00:37:00Z,27.1464,-90.3189,16.8,22.5,11111222
BP,ioos:station:wmo:42907:1,2023-01-02T00:47:00Z,27.1464,-90.3189,16.8,22.5,11111222
BP,ioos:station:wmo:42907:1,2023-01-02T00:57:00Z,27.1464,-90.3189,16.8,22.5,11111222
BP,ioos:station:wmo:42907:1,2023-01-02T01:07:00Z,27.1464,-90.3189,16.7,22.5,11111222
BP,ioos:station:wmo:42907:1,2023-01-02T01:17:00Z,27.1464,-90.3189,16.7,22.5,11111222
BP,ioos:station:wmo:42907:1,2023-01-02T01:27:00Z,27.1464,-90.3189,16.7,22.5,11111222
BP,ioos:station:wmo:42907:1,2023-01-02T01:37:00Z,27.1464,-90.3189,16.6,22.5,11111222
BP,ioos:station:wmo:42907:1,2023-01-02T01:47:00Z,27.1464,-90.3189,16.5,22.5,11111222
BP,ioos:station:wmo:42907:1,2023-01-02T01:57:00Z,27.1464,-90.3189,16.5,22.5,11111222
BP,ioos:station:wmo:42907:1,2023-01-02T02:07:00Z,27.1464,-90.3189,16.5,22.5,11111222
BP,ioos:station:wmo:42907:1,2023-01-02T02:17:00Z,27.1464,-90.3189,16.5,22.4,11111222
BP,ioos:station:wmo:42907:1,2023-01-02T02:27:00Z,27.1464,-90.3189,16.4,22.4,11111222
BP,ioos:station:wmo:42907:1,2023-01-02T02:37:00Z,27.1458,-90.3182,16.4,22.4,11111222
BP,ioos:station:wmo:42907:1,2023-01-02T02:47:00Z,27.1454,-90.3177,16.5,22.4,11111222
BP,ioos:station:wmo:42907:1,2023-01-02T02:57:00Z,27.1454,-90.3177,16.6,22.4,11111222
BP,ioos:station:wmo:42907:1,2023-01-02T03:07:00Z,27.1454,-90.3177,16.6,22.4,11111222
BP,ioos:station:wmo:42907:1,2023-01-02T03:17:00Z,27.1454,-90.3177,16.6,22.4,11111222
BP,ioos:station:wmo:42907:1,2023-01-02T03:27:00Z,27.1454,-90.3177,16.7,22.4,11111222
BP,ioos:station:wmo:42907:1,2023-01-02T03:37:00Z,27.1454,-90.3177,16.6,22.4,11111222
BP,ioos:station:wmo:42907:1,2023-01-02T03:47:00Z,27.1454,-90.3177,16.5,22.4,11111222
BP,ioos:station:wmo:42907:1,2023-01-02T03:57:00Z,27.1454,-90.3177,16.5,22.4,11111222
BP,ioos:station:wmo:42907:1,2023-01-02T04:07:00Z,27.1454,-90.3177,16.6,22.4,11111222
BP,ioos:station:wmo:42907:1,2023-01-02T04:17:00Z,27.1454,-90.3177,16.6,22.4,11111222
BP,ioos:station:wmo:42907:1,2023-01-02T04:27:00Z,27.1454,-90.3177,16.6,22.4,11111222
BP,ioos:station:wmo:42907:1,2023-01-02T04:38:00Z,27.1454,-90.3177,16.6,22.4,11111222
BP,ioos:station:wmo:42907:1,2023-01-02T04:48:00Z,27.1454,-90.3177,16.6,22.4,11111222
BP,ioos:station:wmo:42907:1,2023-01-02T04:58:00Z,27.1454,-90.3177,16.8,22.4,11111222
BP,ioos:station:wmo:42907:1,2023-01-02T05:08:00Z,27.1454,-90.3177,16.4,22.4,11111222
BP,ioos:station:wmo:42907:1,2023-01-02T05:18:00Z,27.1454,-90.3177,16.4,22.4,11111222
BP,ioos:station:wmo:42907:1,2023-01-02T05:28:00Z,27.1454,-90.3177,16.4,22.4,11111222
BP,ioos:station:wmo:42907:1,2023-01-02T05:38:00Z,27.1454,-90.3177,16.4,22.4,11111222
BP,ioos:station:wmo:42907:1,2023-01-02T05:48:00Z,27.1454,-90.3177,16.4,22.4,11111222
BP,ioos:station:wmo:42907:1,2023-01-02T05:58:00Z,27.1454,-90.3177,16.4,22.4,11111222
BP,ioos:station:wmo:42907:1,2023-01-02T06:08:00Z,27.1454,-90.3177,16.4,22.4,11111222
BP,ioos:station:wmo:42907:1,2023-01-02T06:18:00Z,27.1455,-90.3179,16.4,22.5,11111222
BP,ioos:station:wmo:42907:1,2023-01-02T06:28:00Z,27.1457,-90.3181,16.4,22.5,11111222
BP,ioos:station:wmo:42907:1,2023-01-02T06:38:00Z,27.1459,-90.3184,16.4,22.5,11111222
BP,ioos:station:wmo:42907:1,2023-01-02T06:48:00Z,27.1461,-90.3186,16.4,22.5,11111222
BP,ioos:station:wmo:42907:1,2023-01-02T06:58:00Z,27.1461,-90.3186,16.4,22.5,11111222
BP,ioos:station:wmo:42907:1,2023-01-02T07:08:00Z,27.1461,-90.3186,16.4,22.5,11111222
BP,ioos:station:wmo:42907:1,2023-01-02T07:18:00Z,27.1461,-90.3186,16.4,22.5,11111222
BP,ioos:station:wmo:42907:1,2023-01-02T07:28:00Z,27.1461,-90.3186,16.4,22.5,11111222
BP,ioos:station:wmo:42907:1,2023-01-02T07:38:00Z,27.1461,-90.3186,16.4,22.5,11111222
BP,ioos:station:wmo:42907:1,2023-01-02T07:48:00Z,27.1461,-90.3186,16.4,22.4,11111222
BP,ioos:station:wmo:42907:1,2023-01-02T07:58:00Z,27.1461,-90.3186,16.2,22.5,11111222
BP,ioos:station:wmo:42907:1,2023-01-02T08:08:00Z,27.1461,-90.3186,16.3,22.5,11111222
BP,ioos:station:wmo:42907:1,2023-01-02T08:18:00Z,27.1461,-90.3186,16.3,22.5,11111222
BP,ioos:station:wmo:42907:1,2023-01-02T08:28:00Z,27.1461,-90.3186,16.4,22.5,11111222
BP,ioos:station:wmo:42907:1,2023-01-02T08:38:00Z,27.1461,-90.3186,16.4,22.5,11111222
BP,ioos:station:wmo:42907:1,2023-01-02T08:48:00Z,27.1461,-90.3186,16.4,22.5,11111222
BP,ioos:station:wmo:42907:1,2023-01-02T08:58:00Z,27.1461,-90.3186,16.4,22.5,11111222
BP,ioos:station:wmo:42907:1,2023-01-02T09:08:00Z,27.1461,-90.3186,16.4,22.5,11111222
BP,ioos:station:wmo:42907:1,2023-01-02T09:18:00Z,27.1461,-90.3186,16.4,22.5,11111222
BP,ioos:station:wmo:42907:1,2023-01-02T09:28:00Z,27.1461,-90.3186,16.4,22.5,11111222
BP,ioos:station:wmo:42907:1,2023-01-02T09:38:00Z,27.1461,-90.3186,16.4,22.5,11111222
BP,ioos:station:wmo:42907:1,2023-01-02T09:48:00Z,27.1461,-90.3186,16.4,22.5,11111222
BP,ioos:station:wmo:42907:1,2023-01-02T09:58:00Z,27.1461,-90.3186,16.4,22.5,11111222
BP,ioos:station:wmo:42907:1,2023-01-02T10:08:00Z,27.1461,-90.3186,16.4,22.5,11111222
BP,ioos:station:wmo:42907:1,2023-01-02T10:18:00Z,27.1461,-90.3186,16.4,22.5,11111222
BP,ioos:station:wmo:42907:1,2023-01-02T10:28:00Z,27.1461,-90.3186,16.4,22.5,11111222
BP,ioos:station:wmo:42907:1,2023-01-02T10:38:00Z,27.1461,-90.3186,16.4,22.5,11111222
BP,ioos:station:wmo:42907:1,2023-01-02T10:48:00Z,27.1461,-90.3186,16.4,22.5,11111222
BP,ioos:station:wmo:42907:1,2023-01-02T10:58:00Z,27.1461,-90.3186,16.4,22.5,11111222
BP,ioos:station:wmo:42907:1,2023-01-02T11:08:00Z,27.1461,-90.3186,16.4,22.5,11111222
BP,ioos:station:wmo:42907:1,2023-01-02T11:18:00Z,27.1461,-90.3186,16.4,22.5,11111222
BP,ioos:station:wmo:42907:1,2023-01-02T11:28:00Z,27.1461,-90.3187,16.6,22.5,11111222
BP,ioos:station:wmo:42907:1,2023-01-02T11:38:00Z,27.1461,-90.3186,16.5,22.5,11111222
BP,ioos:station:wmo:42907:1,2023-01-02T11:49:00Z,27.1461,-90.3186,16.5,22.5,11111222
BP,ioos:station:wmo:42907:1,2023-01-02T11:59:00Z,27.1459,-90.3184,16.4,22.5,11111222
BP,ioos:station:wmo:42907:1,2023-01-02T12:09:00Z,27.1457,-90.3182,16.6,22.5,11111222
BP,ioos:station:wmo:42907:1,2023-01-02T12:19:00Z,27.1455,-90.3179,16.7,22.5,11111222
BP,ioos:station:wmo:42907:1,2023-01-02T12:29:00Z,27.1454,-90.3177,16.7,22.5,11111222
BP,ioos:station:wmo:42907:1,2023-01-02T12:39:00Z,27.1454,-90.3177,16.7,22.5,11111222
BP,ioos:station:wmo:42907:1,2023-01-02T12:49:00Z,27.1454,-90.3177,16.7,22.5,11111222
BP,ioos:station:wmo:42907:1,2023-01-02T12:59:00Z,27.1454,-90.3177,16.7,22.5,11111222
BP,ioos:station:wmo:42907:1,2023-01-02T13:09:00Z,27.1454,-90.3177,16.8,22.5,11111222
BP,ioos:station:wmo:42907:1,2023-01-02T13:19:00Z,27.1454,-90.3177,16.7,22.5,11111222
BP,ioos:station:wmo:42907:1,2023-01-02T13:29:00Z,27.1454,-90.3177,16.7,22.5,11111222
BP,ioos:station:wmo:42907:1,2023-01-02T13:39:00Z,27.1454,-90.3177,16.7,22.5,11111222
BP,ioos:station:wmo:42907:1,2023-01-02T13:49:00Z,27.1454,-90.3177,16.5,22.5,11111222
BP,ioos:station:wmo:42907:1,2023-01-02T13:59:00Z,27.1454,-90.3177,16.5,22.5,11111222
BP,ioos:station:wmo:42907:1,2023-01-02T14:09:00Z,27.1454,-90.3177,16.6,22.5,11111222
BP,ioos:station:wmo:42907:1,2023-01-02T14:19:00Z,27.1454,-90.3177,16.8,22.5,11111222
BP,ioos:station:wmo:42907:1,2023-01-02T14:29:00Z,27.1454,-90.3177,16.5,22.5,11111222
BP,ioos:station:wmo:42907:1,2023-01-02T14:39:00Z,27.1454,-90.3177,16.6,22.5,11111222
BP,ioos:station:wmo:42907:1,2023-01-02T14:49:00Z,27.1454,-90.3178,16.8,22.5,11111222
BP,ioos:station:wmo:42907:1,2023-01-02T14:59:00Z,27.1454,-90.3177,16.4,22.5,11111222
BP,ioos:station:wmo:42907:1,2023-01-02T15:09:00Z,27.1454,-90.3177,16.6,22.5,11111222
BP,ioos:station:wmo:42907:1,2023-01-02T15:19:00Z,27.1454,-90.3177,16.7,22.5,11111222
BP,ioos:station:wmo:42907:1,2023-01-02T15:29:00Z,27.1454,-90.3177,16.7,22.5,11111222
BP,ioos:station:wmo:42907:1,2023-01-02T15:39:00Z,27.1454,-90.3177,16.7,22.5,11111222
BP,ioos:station:wmo:42907:1,2023-01-02T15:49:00Z,27.1454,-90.3177,16.7,22.5,11111222
BP,ioos:station:wmo:42907:1,2023-01-02T15:59:00Z,27.1454,-90.3177,16.7,22.5,11111222
BP,ioos:station:wmo:42907:1,2023-01-02T16:09:00Z,27.1454,-90.3177,16.7,22.5,11111222
BP,ioos:station:wmo:42907:1,2023-01-02T16:19:00Z,27.1454,-90.3177,16.7,22.5,11111222
BP,ioos:station:wmo:42907:1,2023-01-02T16:29:00Z,27.1454,-90.3177,16.7,22.5,11111222
BP,ioos:station:wmo:42907:1,2023-01-02T16:39:00Z,27.1454,-90.3177,16.7,22.5,11111222
BP,ioos:station:wmo:42907:1,2023-01-02T16:49:00Z,27.1454,-90.3177,16.8,22.5,11111222
BP,ioos:station:wmo:42907:1,2023-01-02T16:59:00Z,27.1454,-90.3177,16.8,22.5,11111222
BP,ioos:station:wmo:42907:1,2023-01-02T17:09:00Z,27.1454,-90.3178,16.8,22.5,11111222
BP,ioos:station:wmo:42907:1,2023-01-02T17:19:00Z,27.1456,-90.3180,16.8,22.5,11111222
BP,ioos:station:wmo:42907:1,2023-01-02T17:29:00Z,27.1458,-90.3182,16.7,22.5,11111222
BP,ioos:station:wmo:42907:1,2023-01-02T17:39:00Z,27.1459,-90.3185,16.7,22.5,11111222
BP,ioos:station:wmo:42907:1,2023-01-02T17:49:00Z,27.1461,-90.3186,16.7,22.4,11111222
BP,ioos:station:wmo:42907:1,2023-01-02T17:59:00Z,27.1461,-90.3186,16.6,22.5,11111222
BP,ioos:station:wmo:42907:1,2023-01-02T18:09:00Z,27.1461,-90.3186,16.6,22.5,11111222
BP,ioos:station:wmo:42907:1,2023-01-02T18:19:00Z,27.1461,-90.3186,16.7,22.4,11111222
BP,ioos:station:wmo:42907:1,2023-01-02T18:29:00Z,27.1461,-90.3186,16.5,22.4,11111222
BP,ioos:station:wmo:42907:1,2023-01-02T18:39:00Z,27.1461,-90.3186,16.4,22.4,11111222
BP,ioos:station:wmo:42907:1,2023-01-02T18:49:00Z,27.1461,-90.3186,16.4,22.4,11111222
BP,ioos:station:wmo:42907:1,2023-01-02T18:59:00Z,27.1459,-90.3184,16.4,22.4,11111222
BP,ioos:station:wmo:42907:1,2023-01-02T19:10:00Z,27.1457,-90.3181,16.4,22.4,11111222
BP,ioos:station:wmo:42907:1,2023-01-02T19:20:00Z,27.1455,-90.3179,16.4,22.5,11111222
BP,ioos:station:wmo:42907:1,2023-01-02T19:30:00Z,27.1454,-90.3177,16.4,22.5,11111222
BP,ioos:station:wmo:42907:1,2023-01-02T19:40:00Z,27.1454,-90.3177,16.4,22.5,11111222
BP,ioos:station:wmo:42907:1,2023-01-02T19:50:00Z,27.1454,-90.3177,16.3,22.5,11111222
BP,ioos:station:wmo:42907:1,2023-01-02T20:00:00Z,27.1454,-90.3177,16.4,22.5,11111222
BP,ioos:station:wmo:42907:1,2023-01-02T20:10:00Z,27.1454,-90.3177,16.3,22.4,11111222
BP,ioos:station:wmo:42907:1,2023-01-02T20:20:00Z,27.1454,-90.3177,16.1,22.4,11111222
BP,ioos:station:wmo:42907:1,2023-01-02T20:30:00Z,27.1454,-90.3177,16.2,22.5,11111222
BP,ioos:station:wmo:42907:1,2023-01-02T20:40:00Z,27.1454,-90.3177,16.4,22.5,11111222
BP,ioos:station:wmo:42907:1,2023-01-02T20:50:00Z,27.1454,-90.3177,16.2,22.4,11111222
BP,ioos:station:wmo:42907:1,2023-01-02T21:00:00Z,27.1454,-90.3177,16.3,22.5,11111222
BP,ioos:station:wmo:42907:1,2023-01-02T21:10:00Z,27.1454,-90.3177,16.3,22.5,11111222
BP,ioos:station:wmo:42907:1,2023-01-02T21:20:00Z,27.1454,-90.3177,16.4,22.4,11111222
BP,ioos:station:wmo:42907:1,2023-01-02T21:30:00Z,27.1454,-90.3177,16.5,22.4,11111222
BP,ioos:station:wmo:42907:1,2023-01-02T21:40:00Z,27.1454,-90.3177,16.4,22.4,11111222
BP,ioos:station:wmo:42907:1,2023-01-02T21:50:00Z,27.1454,-90.3177,16.4,22.5,11111222
BP,ioos:station:wmo:42907:1,2023-01-02T22:00:00Z,27.1454,-90.3178,16.5,22.5,11111222
BP,ioos:station:wmo:42907:1,2023-01-02T22:10:00Z,27.1454,-90.3177,16.7,22.5,11111222
BP,ioos:station:wmo:42907:1,2023-01-02T22:20:00Z,27.1454,-90.3177,16.7,22.5,11111222